< < Back
Terminal Aerodrome Forecast


Current Version              Previous Versions:   1  2  3  4  5  6  7  8  9  

Terminal Aerodrome Forecast

834
FTUS42 KILM 211700
TAFILM
TAF
KILM 211725Z 2118/2218 29007KT P6SM SKC
     FM212300 23009KT P6SM SKC
     FM220500 30011G15KT P6SM SKC
     FM221100 33012G18KT P6SM SKC=

Latest METAR

165
SAUS70 KWBC 220500 RRK
MTRILM
METAR KILM 220453Z AUTO 34007KT 10SM FEW090 16/11 A2988 RMK AO2 SLP118
T01610106 402560117


USA.gov is the U.S. government's official web portal to all federal, state and local government web resources and services.